This demonstration page uses our WeatherBlox Daily Observations layout. Learn more.

Left ArrowRight Arrow

Hourly Observations for December 9, 2016

Temp ( °F °C ) Dew Point ( °F °C ) Humidity (%) Winds ( mph kmh ) Pressure ( in mb ) Visibility ( mi km ) Precip ( " mm )
12:51 am 00:51 Clear 43 6.1 31 -0.6 63 63 SE 10 17 30.27 1025 10 16 N/A
1:51 am 01:51 Clear 42 5.6 31 -0.6 65 65 SE 10 17 30.28 1025 10 16 N/A
2:51 am 02:51 Clear 41 5 31 -0.6 67 67 SE 10 17 30.27 1025 10 16 N/A
3:51 am 03:51 Clear 41 5 31 -0.6 67 67 SE 12 19 30.28 1025 10 16 N/A
4:51 am 04:51 Clear 39 3.9 30 -1.1 70 70 SE 12 19 30.28 1025 10 16 N/A
5:51 am 05:51 Clear 38 3.3 30 -1.1 73 73 SE 12 19 30.31 1026 10 16 N/A
6:51 am 06:51 Clear 37 2.8 29 -1.7 73 73 SE 9 15 30.33 1027 10 16 N/A
7:51 am 07:51 Sunny 39 3.9 29 -1.7 67 67 ESE 12 19 30.32 1027 10 16 N/A
8:51 am 08:51 Sunny 41 5 30 -1.1 65 65 SE 13 20 30.35 1028 10 16 N/A
9:51 am 09:51 Sunny 45 7.2 30 -1.1 56 56 SE 12 19 30.35 1028 10 16 N/A
10:51 am 10:51 Sunny 49 9.4 31 -0.6 50 50 SE 8 13 30.33 1027 10 16 N/A
11:51 am 11:51 Sunny 53 11.7 31 -0.6 43 43 SSE 9 15 30.28 1026 10 16 N/A
12:51 pm 12:51 Sunny 56 13.3 31 -0.6 39 39 SSE 7 11 30.23 1024 10 16 N/A
1:51 pm 13:51 Sunny 58 14.4 32 undefined 38 38 SSE 9 15 30.19 1023 10 16 N/A
2:51 pm 14:51 Sunny 58 14.4 32 undefined 38 38 SSE 5 7 30.18 1022 10 16 N/A
3:51 pm 15:51 Sunny 58 14.4 32 undefined 38 38 S 7 11 30.16 1022 10 16 N/A
4:51 pm 16:51 Sunny 56 13.3 32 undefined 40 40 SSE 6 9 30.16 1022 10 16 N/A
5:51 pm 17:51 Clear 50 10 31 -0.6 48 48 E 5 7 30.18 1022 10 16 N/A
6:51 pm 18:51 Clear 49 9.4 31 -0.6 50 50 E 8 13 30.20 1023 10 16 N/A
7:51 pm 19:51 Clear 47 8.3 31 -0.6 54 54 E 7 11 30.20 1023 10 16 N/A
8:51 pm 20:51 Clear 47 8.3 31 -0.6 54 54 ESE 7 11 30.19 1023 10 16 0.01 0.25
9:51 pm 21:51 Clear 49 9.4 33 0.6 55 55 ESE 9 15 30.18 1022 10 16 N/A
10:51 pm 22:51 Clear 49 9.4 33 0.6 55 55 ESE 8 13 30.19 1022 10 16 N/A
11:51 pm 23:51 Clear 48 8.9 33 0.6 56 56 SE 14 22 30.18 1022 10 16 N/A

Powered by AerisWeather